Location: Marstown
(39.5056°N, 77.0820°W)
Time: 14:43:54
(UTC-05:00)

Envisat - Visible Passes

Search period start: 19 November 2018 00:00
Search period end: 29 November 2018 00:00
Orbit: 764 x 766 km, 98.2° (Epoch: 19 November)

Date Brightness Start Highest point End Pass type
(mag) Time Alt. Az. Time Alt. Az. Time Alt. Az.
19 Nov 3.9 18:06:08 19° ESE 18:08:17 25° ENE 18:12:22 10° NNE visible
19 Nov 4.3 19:46:22 35° WSW 19:47:06 37° W 19:51:48 10° NNW visible
20 Nov 4.7 17:30:19 10° E 17:32:00 12° ENE 17:33:42 10° NE visible
20 Nov 2.9 19:09:20 60° S 19:10:17 85° WSW 19:15:23 10° NNW visible
21 Nov 3.3 18:32:18 35° ESE 18:33:38 42° ENE 18:38:25 10° N visible
21 Nov 5.2 20:12:31 21° W 20:12:49 21° W 20:16:39 10° NW visible
22 Nov 4.2 17:55:15 16° E 17:57:12 20° ENE 18:00:51 10° NNE visible
22 Nov 3.8 19:30:59 10° S 19:35:52 47° W 19:40:46 10° NNW visible
23 Nov 2.8 18:54:02 10° SSE 18:59:06 76° ENE 19:04:10 10° N visible
23 Nov 5.9 20:38:37 11° W 20:38:39 11° W 20:40:16 10° WNW visible
24 Nov 3.5 18:21:20 30° E 18:22:31 34° ENE 18:27:04 10° N visible
24 Nov 4.9 19:57:18 10° SSW 20:01:33 27° W 20:05:49 10° NW visible
25 Nov 6.2 06:29:44 10° ENE 06:31:39 12° E 06:33:35 10° ESE visible
25 Nov 4.4 17:44:14 13° E 17:46:09 16° ENE 17:49:11 10° NNE visible
25 Nov 3.4 19:19:38 10° S 19:24:39 61° W 19:29:41 10° NNW visible
26 Nov 2.9 18:42:58 10° SSE 18:47:56 60° ENE 18:52:56 10° N visible
26 Nov 5.7 20:27:32 15° W 20:27:32 15° W 20:30:12 10° WNW visible
27 Nov 3.8 18:10:12 24° E 18:11:25 27° ENE 18:15:39 10° N visible
27 Nov 4.5 19:45:43 10° SSW 19:50:24 34° W 19:54:53 10° NNW visible
28 Nov 4.6 17:33:02 10° E 17:35:07 13° ENE 17:37:18 10° NE visible
28 Nov 3.0 19:08:22 10° S 19:13:26 78° WSW 19:18:33 10° NNW visible
